Location: Treviso
(45.6669°N, 12.2430°E)
Time: 00:42:23
(UTC+02:00)

ISS - Pass Details

Date: 27 May 2017
Orbit: 402 x 408 km, 51.6° (Epoch: 30 May)

Event Time Altitude Azimuth Distance (km) Brightness Sun altitude
Rises 04:10:28 0° 289° (WNW) 2,328 -0.2 -11.3°
Reaches altitude 10° 04:12:57 10° 270° (W) 1,462 -1.4 -11.0°
Maximum altitude 04:15:19 19° 224° (SW) 1,051 -2.4 -10.7°
Drops below altitude 10° 04:17:40 10° 178° (S) 1,452 -1.4 -10.4°
Sets 04:20:08 0° 159° (SSE) 2,305 -0.2 -10.1°
